This demonstration page uses our WeatherBlox Daily Observations layout. Learn more.

Left ArrowRight Arrow

40.97296, -117.73568

Hourly Observations for August 16, 2020

Temp ( °F °C ) Dew Point ( °F °C ) Humidity (%) Winds ( mph kmh ) Pressure ( in mb ) Visibility ( mi km ) Precip ( " mm )
12:56 am 00:56 Clear 69 20.6 37 2.8 31 31 Calm 29.97 1015 10 16 0.00 0.00
1:56 am 01:56 Clear 68 20 36 2.2 31 31 S 7 11 29.97 1015 10 16 0.00 0.00
2:56 am 02:56 Clear 68 20 35 1.7 30 30 S 5 7 29.99 1016 10 16 0.00 0.00
3:56 am 03:56 Clear 70 21.1 37 2.8 30 30 E 3 6 29.99 1016 10 16 0.00 0.00
4:56 am 04:56 Clear 63 17.2 35 1.7 35 35 S 6 9 30.00 1016 10 16 0.00 0.00
5:56 am 05:56 Clear 66 18.9 37 2.8 34 34 NE 5 7 30.01 1016 10 16 0.00 0.00
6:56 am 06:56 Sunny 69 20.6 39 3.9 33 33 E 5 7 30.01 1016 10 16 0.00 0.00
7:56 am 07:56 Sunny 77 25 36 2.2 23 23 NE 8 13 30.01 1016 10 16 0.00 0.00
8:56 am 08:56 Mostly Sunny 76 24.4 36 2.2 23 23 NE 12 19 30.02 1017 10 16 0.00 0.00
9:56 am 09:56 Sunny 87 30.6 37 2.8 17 17 N 8 13 30.01 1016 10 16 0.00 0.00
10:56 am 10:56 Sunny 92 33.3 37 2.8 14 14 NNE 16 26 30.00 1016 10 16 0.00 0.00
11:56 am 11:56 Sunny 96 35.6 36 2.2 12 12 NNE 17 28 30.00 1016 10 16 0.00 0.00
12:56 pm 12:56 Sunny 98 36.7 37 2.8 12 12 NE 15 24 29.97 1015 10 16 0.00 0.00
1:56 pm 13:56 Sunny 98 36.7 36 2.2 11 11 N 10 17 29.96 1015 10 16 0.00 0.00
2:56 pm 14:56 Sunny 99 37.2 35 1.7 11 11 N 7 11 29.94 1014 10 16 0.00 0.00
3:56 pm 15:56 Mostly Cloudy 102 38.9 34 1.1 9 9 VRB 6 9 29.91 1013 10 16 0.00 0.00
4:56 pm 16:56 Mostly Cloudy 102 38.9 34 1.1 9 9 VRB 7 11 29.92 1013 10 16 0.00 0.00
5:43 pm 17:43 Cloudy 101 38.3 36 2.2 10 10 NW 22 35 29.61 1003 10 16 0.00 0.00
5:56 pm 17:56 Cloudy 100 37.8 37 2.8 11 11 NW 23 37 29.92 1013 10 16 0.00 0.00
6:25 pm 18:25 Cloudy with Haze 93 33.9 40 4.4 16 16 W 25 41 29.69 1006 2 3 0.00 0.00
6:36 pm 18:36 Cloudy with Haze 93 33.9 41 5 16 16 WNW 16 26 29.70 1006 2 2 0.00 0.00
6:46 pm 18:46 Cloudy with Haze 93 33.9 40 4.4 16 16 WNW 18 30 29.70 1006 3 4 0.00 0.00
6:52 pm 18:52 Cloudy with Haze 91 33 39 4 16 16 W 17 28 29.72 1006 3 5 0.00 0.00
6:56 pm 18:56 Cloudy with Haze 92 33.3 40 4.4 16 16 W 15 24 29.96 1014 4 6 0.00 0.00
7:14 pm 19:14 Mostly Cloudy with Haze 91 32.8 39 3.9 16 16 W 15 24 29.73 1007 3 4 0.00 0.00
7:22 pm 19:22 Hazy 91 32.8 40 4.4 17 17 W 13 20 29.74 1007 3 5 0.00 0.00
7:56 pm 19:56 Mostly Clear 89 31.7 40 4.4 18 18 W 10 17 29.99 1016 10 16 0.00 0.00
8:54 pm 20:54 Clear with Nearby Thunderstorms 88 31 43 6 21 21 SW 13 20 29.83 1010 10 16 0.00 0.00
8:56 pm 20:56 Clear with Nearby Thunderstorms 88 31.1 42 5.6 20 20 SW 12 19 30.04 1017 10 16 0.00 0.00
9:04 pm 21:04 Clear with Thunderstorms 87 30.6 42 5.6 21 21 SSW 13 20 29.87 1011 10 16 0.00 0.00
9:17 pm 21:17 Mostly Clear with Thunderstorms 83 28.3 46 7.8 27 27 S 30 48 29.91 1013 3 4 0.00 0.00
9:21 pm 21:21 Partly Cloudy with Thunderstorms 83 28.3 46 7.8 27 27 S 31 50 29.94 1014 1 2 0.00 0.00
9:28 pm 21:28 Mostly Cloudy with Nearby Thunderstorms 80 26.7 49 9.4 34 34 SSE 29 46 29.96 1015 2 3 0.00 0.00
9:34 pm 21:34 Mostly Cloudy with Nearby Thunderstorms 77 25 51 10.6 40 40 SSE 23 37 30.00 1016 3 5 0.00 0.00
9:53 pm 21:53 Partly Cloudy 81 27 48 9 32 32 SE 15 24 29.96 1014 9 14 0.00 0.00
9:56 pm 21:56 Partly Cloudy 81 27.2 48 8.9 32 32 SSE 12 19 30.10 1019 9 14 0.00 0.00
10:56 pm 22:56 Clear 80 26.7 46 7.8 30 30 SSE 5 7 30.08 1019 10 16 0.00 0.00
11:56 pm 23:56 Clear 77 25 46 7.8 33 33 Calm 30.07 1018 10 16 0.00 0.00

Powered by AerisWeather